Regional Weather Roundup
Issued by NWS Binghamton, NY

Home | Current Version | Previous Version | Text Only | Print | Product List | Glossary On
Versions: 1 2 3 4 5 6 7 8 9 10 11 12 13 14 15 16 17 18 19 20 21 22 23 24 25 26 27 28
000
ASUS41 KBGM 200810
RWRBGM

REGIONAL WEATHER ROUNDUP
NATIONAL WEATHER SERVICE BINGHAMTON NY
300 AM EST MON NOV 20 2017

Note: "fair" indicates few or no clouds below 12,000 feet with no
significant weather and/or obstructions to visibility.

* = Station(s) that does not report precipitation, such as rain,
snow, etc, also no thunder or fog.

NYZ009-015>018-022>025-036-037-044>046-055>057-062-200900
...Central New York...

CITY           SKY/WX    TMP DP  RH WIND       PRES   REMARKS
Binghamton     CLOUDY    27  20  75 NW6       29.83R WCI  20
Cortland       CLOUDY    30  27  86 W6        29.85R WCI  24
Dansville      CLOUDY    33  20  58 NW7       29.91R WCI  27
Elmira         CLOUDY    32  26  78 W3        29.89R
Seneca Falls   PTSUNNY   30  25  80 W10       29.89S WCI  21
Ithaca         CLOUDY    28  24  85 W7        29.87R WCI  21
Hamilton       CLOUDY    27  25  93 NW6       29.83R VSB 1/2 WCI  20
Hornell        CLOUDY    28  21  74 W7        29.92R WCI  21
Monticello     FLURRIES  29  21  72 NW14G23   29.82R WCI  18
Penn Yan       MOCLDY    31  18  58 W13G23    29.87R WCI  21
Rome           MIX PCPN  29  22  75 W13       29.85R WCI  19
Sidney         CLOUDY    30  21  69 W9G16     29.85R WCI  22
Syracuse       LGT SNOW  28  27  96 W16       29.87R FOG     WCI  16
$$

PAZ038>040-043-044-047-048-072-200900
...Northeast Pennsylvania...

CITY           SKY/WX    TMP DP  RH WIND       PRES   REMARKS
Hazleton       CLOUDY    30  23  74 W7        29.90R WCI  23
Scranton       FLURRIES  32  29  88 SW7       29.89R WCI  26
$$
&&
KEY
WCI = Wind Chill Index
VSB = Visibility
HX  = Heat Index
$$




USA.gov is the U.S. government's official web portal to all federal, state and local government web resources and services.